Tucson, AZ

9:43 AM MST on February 19, 2017 (GMT -0700)
Tucson International

Weather History for KTUS - January, 2013

Change the Weather History Date:

Monday, January 28, 2013

  Actual Average Record
Temperature  
Mean Temperature 50 °F 54 °F  
Max Temperature 58 °F 67 °F 83 °F (1906)
Min Temperature 41 °F 41 °F 23 °F (1932)
Degree Days  
Heating Degree Days 15 11  
Month to date heating degree days 404 349  
Since 1 July heating degree days 825 960  
Cooling Degree Days 0 0  
Month to date cooling degree days 0 0  
Year to date cooling degree days 0 0  
Moisture  
Dew Point 40 °F    
Average Humidity 64    
Maximum Humidity 77    
Minimum Humidity 50    
Precipitation  
Precipitation 0.06 in 0.03 in 0.57 in (1941)
Month to date precipitation 0.81 0.84  
Year to date precipitation 0.81 0.84  
Snow  
Snow 0.00 in - - ()
Month to date snowfall 0.0  
Snow Depth 0.00 in    
Sea Level Pressure  
Sea Level Pressure 29.93 in    
Wind  
Wind Speed 10 mph (West)    
Max Wind Speed 24 mph    
Max Gust Speed 31 mph    
Visibility 9 miles    
Events Rain    
T = Trace of Precipitation, MM = Missing Value Source: NWS Daily Summary

Daily Weather History Graph

Daily Weather History Graph

Search for Another Location

Airport or City:

Trip Planner

Search our weather history database for the weather conditions in past years. The results will help you decide how hot, cold, wet, or windy it might be!

Date:

Astronomy

Jan. 28, 2013 Rise Set
Actual Time 7:19 AM MST 5:54 PM MST
Civil Twilight 6:53 AM MST 6:20 PM MST
Nautical Twilight 6:24 AM MST 6:49 PM MST
Astronomical Twilight 5:55 AM MST 7:18 PM MST
Moon 7:42 PM MST (1/28) 7:55 AM MST (1/28)
Length of Visible Light 11h 26m
Length of Day
10h 34m
Full, 97% of the Moon is Illuminated
Jan 28
Full
Feb 3
Last Quarter
Feb 10
New
Feb 17
First Quarter
Feb 25
Full

Hourly Weather History & Observations

Time (MST) Temp. Windchill Dew Point Humidity Pressure Visibility Wind Dir Wind Speed Gust Speed Precip Events Conditions
12:53 AM 57.9 °F - 48.0 °F 70% 29.89 in 10.0 mi SSW 8.1 mph - N/A   Mostly Cloudy
1:53 AM 57.0 °F - 46.9 °F 69% 29.89 in 10.0 mi SSW 11.5 mph - N/A   Partly Cloudy
2:53 AM 57.0 °F - 46.9 °F 69% 29.89 in 10.0 mi SSW 9.2 mph - N/A   Mostly Cloudy
3:53 AM 55.9 °F - 45.0 °F 67% 29.88 in 10.0 mi SSW 11.5 mph - N/A   Partly Cloudy
4:53 AM 55.0 °F - 45.0 °F 69% 29.88 in 10.0 mi SSW 9.2 mph - N/A   Overcast
5:53 AM 55.0 °F - 45.0 °F 69% 29.88 in 10.0 mi SSW 6.9 mph - N/A   Overcast
6:53 AM 54.0 °F - 45.0 °F 72% 29.90 in 10.0 mi SSW 11.5 mph - N/A   Partly Cloudy
7:53 AM 53.1 °F - 45.0 °F 74% 29.91 in 10.0 mi WSW 10.4 mph - N/A   Clear
8:53 AM 54.0 °F - 45.0 °F 72% 29.92 in 10.0 mi West 5.8 mph - N/A   Overcast
9:53 AM 54.0 °F - 44.1 °F 69% 29.93 in 10.0 mi WSW 13.8 mph 23.0 mph 0.00 in   Overcast
10:53 AM 52.0 °F - 44.1 °F 74% 29.95 in 3.0 mi SSW 15.0 mph 31.1 mph 0.02 in Rain Rain
11:53 AM 52.0 °F - 44.1 °F 74% 29.95 in 10.0 mi NW 10.4 mph - 0.00 in   Scattered Clouds
12:53 PM 51.1 °F - 41.0 °F 68% 29.94 in 6.0 mi West 17.3 mph 27.6 mph 0.00 in Rain Light Rain
1:00 PM 48.9 °F - 43.0 °F 80% 29.99 in 4.0 mi WNW 13.8 mph 31.1 mph 0.02 in Rain Rain
1:53 PM 48.9 °F - 42.1 °F 77% 29.92 in 10.0 mi NW 13.8 mph 23.0 mph 0.02 in   Overcast
2:53 PM 46.9 °F - 39.0 °F 74% 29.94 in 7.0 mi NW 16.1 mph 24.2 mph 0.01 in Rain Light Rain
3:53 PM 48.0 °F - 36.0 °F 63% 29.94 in 10.0 mi NW 10.4 mph - 0.00 in Rain Light Rain
4:53 PM 48.9 °F - 33.1 °F 54% 29.92 in 10.0 mi NW 10.4 mph - 0.00 in   Scattered Clouds
5:53 PM 48.9 °F - 32.0 °F 52% 29.93 in 10.0 mi NW 9.2 mph - N/A   Overcast
6:53 PM 48.0 °F - 30.0 °F 50% 29.95 in 10.0 mi WNW 11.5 mph - N/A   Overcast
7:53 PM 46.9 °F - 30.0 °F 52% 29.97 in 10.0 mi WNW 5.8 mph - N/A   Overcast
8:53 PM 46.0 °F - 35.1 °F 66% 29.97 in 10.0 mi Calm Calm - N/A   Overcast
9:53 PM 46.9 °F - 32.0 °F 56% 29.97 in 10.0 mi West 6.9 mph - N/A   Overcast
10:53 PM 44.1 °F 37.1 °F 32.0 °F 63% 30.00 in 10.0 mi NW 15.0 mph - N/A   Overcast
11:53 PM 41.0 °F 36.4 °F 35.1 °F 79% 30.01 in 10.0 mi SW 6.9 mph - 0.01 in   Overcast